sat.trackr.live / text

‹ back to catalog

EUTELSAT 65 WEST A

NORAD 41382 · 2016-014A

PAYLOAD ACTIVE UNKNOWN

§ Identity

Operator
Country
EUTE
Launch date
2016-03-09
Launch site
FRGUI
Launch vehicle
Mass (kg)
RCS (m²)
47.75

Purposes: comms

External: N2YO · Heavens-Above · Gunter

§ Orbital elements

Epoch: 2026-09-20T03:27:13.671072Z

Period
1,436.11 min
Inclination
0.0633°
Eccentricity
0.0002236
Mean motion
1.00270721 rev/d
Perigee alt
35,777.5 km
Apogee alt
35,796.3 km
Semi-major
42,165.0 km
B*
0.0000e+0
RAAN
325.8736°
Arg perigee
207.2431°
Mean anomaly
172.5466°
Rev number
3,847

§ Raw data

EUTELSAT 65 WEST A1 41382U 16014A   26263.14390823 -.00000280  00000+0  00000+0 0  99982 41382   0.0633 325.8736 0002236 207.2431 172.5466  1.00270721 38471

JSON: /api/v1/satellites/41382 · /tle

For live sub-satellite position, see the globe view (requires WebGL).

§ Visibility from observer

Set your observer location to see the next 7 days of passes ≥ 10°. The values pass through the URL so the page stays shareable.

No JS? Fill the form by hand. The geolocation button needs JavaScript.